Location: Anuling
(14.1239°N, 120.8922°E)
Time: 01:10:50
(UTC+00:00)

GPS 2-17 Rocket1 - Pass Details

Date: 16 April 2026
Orbit: 544 x 613 km, 20.3° (Epoch: 19 May)

Event Time Altitude Azimuth Distance (km) Brightness Sun altitude
Rises 10:52:33 0° 288° (WNW) 2,851 8.7 -10.9°
Reaches altitude 10° 10:54:56 10° 293° (WNW) 1,951 7.1 -11.4°
Maximum altitude 10:59:25 56° 11° (N) 722 3.4 -12.5°
Enters shadow 11:02:36 19° 85° (E) 1,471 4.4 -13.2°
